Location: Norton
(51.3000°N, 0.8167°E)
Time: 02:11:40
(UTC+00:00)

CSL-04 DEB - Pass Details

Date: 03 March 2021
Orbit: 546 x 627 km, 98.8° (Epoch: 13 April)

Event Time Altitude Azimuth Distance (km) Brightness Sun altitude
Rises 18:11:29 0° 17° (NNE) 2,731 7.7 -5.5°
Reaches altitude 10° 18:13:37 10° 20° (NNE) 1,836 6.8 -5.9°
Maximum altitude 18:17:34 69° 104° (ESE) 598 4.3 -6.5°
Drops below altitude 10° 18:21:33 10° 188° (S) 1,851 7.1 -7.1°
Sets 18:23:42 0° 191° (S) 2,754 8.1 -7.4°
